FW2134 Staten Island NY US current weather conditions

sailwx.info

Wind from 298 at 2 knots

Air temperature 3.3° C
Dewpoint -8.4° C

Last reported at 2019-Dec-07 19:00 UTC.
Time now 2019-Dec-07 20:09 UTC

Location: N 40°35' W 074°11'.
View on Google Maps.

See reports from other nearby stations

  
Tides and Currents Weather Stations Pressure Air Temp Water Temp Dewpoint Dewpoint Depression Visibility Wind Speed Wind Dir Waves Ship Positions
date/time (UTC)wind fromknots sea level pressurealtimeterstation pressurevisibilityair tempwater tempwave heightnotes
2019-Dec-07 19:00 298 2 3.3
2019-Dec-07 18:45 327 2 3.3
2019-Dec-07 18:31 339 1 3.3
2019-Dec-07 18:16 298 3 3.3
2019-Dec-07 18:01 308 4 3.3
2019-Dec-07 17:46 330 2 3.3
2019-Dec-07 17:32 296 2 3.3
2019-Dec-07 17:16 326 2 2.8
2019-Dec-07 17:01 337 3 2.8
2019-Dec-07 16:46 320 2 2.8
2019-Dec-07 16:30 337 2 2.8
2019-Dec-07 16:15 312 3 2.2
2019-Dec-07 16:01 316 2 2.2
2019-Dec-07 15:45 336 2 1.7
2019-Dec-07 15:30 337 2 1.7
2019-Dec-07 15:15 339 3 1.7
2019-Dec-07 15:01 312 4 1.1
2019-Dec-07 14:45 313 2 0.6
2019-Dec-07 14:30 315 3 0.6
2019-Dec-07 14:15 292 2 0.6
2019-Dec-07 14:00 303 2 -0.0
2019-Dec-07 13:46 319 1 -0.0
2019-Dec-07 13:31 323 1 -0.0
2019-Dec-07 13:15 315 1 -0.6
2019-Dec-07 13:00 326 1 -0.6
2019-Dec-07 12:45 320 1 -0.6
2019-Dec-07 12:30 291 1 -1.1
2019-Dec-07 12:15 292 0 -1.1
2019-Dec-07 12:00 288 0 -1.7
2019-Dec-07 11:45 288 -1.7
2019-Dec-07 11:30 288 -1.1
2019-Dec-07 11:15 288 -1.1
2019-Dec-07 11:00 288 -1.1
2019-Dec-07 10:45 288 0 -0.6
2019-Dec-07 10:30 284 0 -0.6
2019-Dec-07 10:15 284 0 -0.6
2019-Dec-07 10:01 289 0 -0.6
2019-Dec-07 09:46 315 -0.6
2019-Dec-07 09:33 326 0 -0.0
2019-Dec-07 09:17 326 1 -0.0
2019-Dec-07 09:01 319 2 -0.0
2019-Dec-07 08:47 322 2 -0.0
2019-Dec-07 08:32 322 1 -0.0
2019-Dec-07 08:17 333 1 0.6
2019-Dec-07 08:01 327 1 0.6
2019-Dec-07 07:46 323 1 0.6
2019-Dec-07 07:31 253 1 0.6
2019-Dec-07 07:16 326 2 1.1
2019-Dec-07 07:01 319 1 1.1
2019-Dec-07 06:46 332 1 1.1
2019-Dec-07 06:31 316 1 1.1
2019-Dec-07 06:16 284 2 1.7
2019-Dec-07 06:01 312 3 1.7
2019-Dec-07 05:46 320 2 1.7
2019-Dec-07 05:31 309 3 1.7
2019-Dec-07 05:16 335 2 2.2
2019-Dec-07 05:00 333 2 2.2
2019-Dec-07 04:45 330 2 2.2
2019-Dec-07 04:30 311 3 2.8
2019-Dec-07 04:15 319 3 2.8
2019-Dec-07 04:00 323 3 3.3
2019-Dec-07 03:45 306 2 3.3
2019-Dec-07 03:30 327 2 3.9
2019-Dec-07 03:15 322 2 3.9
2019-Dec-07 03:00 327 3 4.4
2019-Dec-07 02:45 343 4 5.0
2019-Dec-07 02:30 319 3 5.0
2019-Dec-07 02:15 327 3 5.6
2019-Dec-07 02:00 305 3 5.6
2019-Dec-07 01:45 325 4 6.1
2019-Dec-07 01:30 336 5 7.2
2019-Dec-07 01:15 312 4 7.8
2019-Dec-07 01:00 313 2 7.8
2019-Dec-07 00:45 285 3 7.8
2019-Dec-07 00:30 274 2 7.8
2019-Dec-07 00:15 261 2 7.8
2019-Dec-07 00:00 258 1 7.8
2019-Dec-06 23:45 308 3 7.8
2019-Dec-06 23:30 292 3 8.3
2019-Dec-06 23:15 287 3 8.3
2019-Dec-06 23:00 294 3 8.3
2019-Dec-06 22:45 239 2 8.3
2019-Dec-06 22:30 215 4 7.8
2019-Dec-06 22:15 207 4 7.8
2019-Dec-06 22:00 226 4 7.8
2019-Dec-06 21:45 206 5 7.8
2019-Dec-06 21:30 237 4 7.8
2019-Dec-06 21:15 222 4 7.8
2019-Dec-06 21:00 175 4 7.8
2019-Dec-06 20:45 241 5 8.3
2019-Dec-06 20:32 261 5 8.9
2019-Dec-06 20:18 172 6 8.9
2019-Dec-06 20:02 158 5 9.4
2019-Dec-06 19:47 192 3 8.9
2019-Dec-06 19:31 195 5 8.9
2019-Dec-06 19:17 217 6 8.9
2019-Dec-06 19:02 212 5 8.9
2019-Dec-06 18:46 210 7 8.9
2019-Dec-06 18:33 236 6 8.9
2019-Dec-06 18:16 206 5 8.3
2019-Dec-06 18:01 179 5 7.8
2019-Dec-06 17:46 212 5 7.2
2019-Dec-06 17:30 227 4 6.7
2019-Dec-06 17:01 195 4 6.7
2019-Dec-06 16:46 176 1 6.1
2019-Dec-06 16:31 181 3 5.6
2019-Dec-06 16:16 210 3 5.6
2019-Dec-06 16:01 179 3 5.0
2019-Dec-06 15:46 205 3 5.0
2019-Dec-06 15:30 150 3 5.0
2019-Dec-06 15:15 193 3 3.9
2019-Dec-06 15:00 165 3 3.9
2019-Dec-06 14:45 159 2 3.3
2019-Dec-06 14:30 171 1 2.8
2019-Dec-06 14:15 210 1 2.8
2019-Dec-06 14:00 171 1 2.2
2019-Dec-06 13:45 203 1 1.7
2019-Dec-06 13:30 217 2 1.7
2019-Dec-06 13:15 210 0 1.1
2019-Dec-06 13:00 205 1 0.6
2019-Dec-06 12:45 213 -0.0
2019-Dec-06 12:30 213 -0.0
2019-Dec-06 12:15 213 0.6
2019-Dec-06 12:00 213 0.6
2019-Dec-06 11:45 213 0.6
2019-Dec-06 11:30 213 0 0.6
2019-Dec-06 11:15 216 0 0.6
2019-Dec-06 11:00 215 0 0.6
2019-Dec-06 10:45 219 0.6
2019-Dec-06 10:30 229 -0.0
2019-Dec-06 10:15 229 -0.0
2019-Dec-06 10:00 215 0 -0.0
2019-Dec-06 09:45 255 0 -0.0
2019-Dec-06 09:30 268 -0.6
2019-Dec-06 09:17 268 -0.6
2019-Dec-06 09:02 268 -0.6
2019-Dec-06 08:46 268 -0.6
2019-Dec-06 08:31 268 -0.6
2019-Dec-06 08:16 237 -0.0
2019-Dec-06 08:01 237 -0.0
2019-Dec-06 07:46 271 -0.6
2019-Dec-06 07:31 287 -0.6
2019-Dec-06 07:16 287 -0.6
2019-Dec-06 07:01 288 -0.0
2019-Dec-06 06:46 288 -0.0
2019-Dec-06 06:31 288 0 -0.0
2019-Dec-06 06:15 287 -0.0
2019-Dec-06 06:01 288 0 0.6
2019-Dec-06 05:46 288 1 0.6
2019-Dec-06 05:31 299 1 0.6
2019-Dec-06 05:15 278 2 1.1
2019-Dec-06 05:02 342 2 1.1
2019-Dec-06 04:46 265 0 1.1
2019-Dec-06 04:31 316 1 1.1
2019-Dec-06 04:15 302 3 1.7
2019-Dec-06 04:01 277 2 1.7
2019-Dec-06 03:46 294 2 1.7
2019-Dec-06 03:30 268 3 1.7
2019-Dec-06 03:16 309 3 1.7
2019-Dec-06 03:00 299 3 1.7
2019-Dec-06 02:45 298 3 2.2
2019-Dec-06 02:31 305 3 2.2
2019-Dec-06 02:15 298 4 2.2
2019-Dec-06 02:00 250 4 2.2
2019-Dec-06 01:45 313 6 2.2
2019-Dec-06 01:30 292 3 2.8
2019-Dec-06 01:15 320 4 2.8
2019-Dec-06 01:00 299 4 2.8
2019-Dec-06 00:45 294 6 2.8
2019-Dec-06 00:30 287 5 2.8
2019-Dec-06 00:15 248 3 2.8
2019-Dec-06 00:00 299 5 2.8
2019-Dec-05 23:45 265 4 2.8
2019-Dec-05 23:30 279 3 2.8
2019-Dec-05 23:15 278 2 2.8
2019-Dec-05 23:00 272 6 3.3
2019-Dec-05 22:45 313 6 3.3
2019-Dec-05 22:30 278 5 3.3
2019-Dec-05 22:15 295 6 3.3
2019-Dec-05 22:00 296 5 3.9
2019-Dec-05 21:45 294 4 3.9
2019-Dec-05 21:30 298 2 3.9
2019-Dec-05 21:02 258 4 3.9
2019-Dec-05 20:46 305 5 3.9
2019-Dec-05 20:31 247 5 3.9
2019-Dec-05 20:17 287 5 3.9
2019-Dec-05 20:02 302 3 3.9